Location: ???? ??
(36.0534°N, 43.5630°E)
Time: 03:10:58
(UTC+00:00)

Cosmos 389 Rocket - Pass Details

Date: 18 September 2019
Orbit: 444 x 478 km, 81.1° (Epoch: 18 October)

Event Time Altitude Azimuth Distance (km) Brightness Sun altitude
Rises 16:23:55 0° 5° (N) 2,446 6.3 -15.7°
Reaches altitude 10° 16:26:15 10° 20° (NNE) 1,570 5.1 -16.2°
Enters shadow 16:27:56 20° 45° (NE) 1,087 4.0 -16.5°
